Stündliche Wetter Jumilla

Heute, 25 Februar, Donnerstag

Zeit Temperatur Niederschläge Wind Luftdruck Luftfeuchtigkeit
00:00 +7°C° 0 mm 1 m/S 713 mmHg 95%
01:00 +6°C° 0 mm 1 m/S 713 mmHg 95%
02:00 +6°C° 0 mm 1 m/S 712 mmHg 95%
03:00 +6°C° 0 mm 1 m/S 712 mmHg 95%
04:00 +6°C° 0 mm 1 m/S 712 mmHg 94%
05:00 +6°C° 0 mm 1 m/S 712 mmHg 94%
06:00 +7°C° 0 mm 1 m/S 712 mmHg 93%
07:00 +7°C° 0 mm 1 m/S 712 mmHg 90%
08:00 +7°C° 0 mm 2 m/S 712 mmHg 86%
09:00 +8°C° 0 mm 2 m/S 713 mmHg 83%
10:00 +9°C° 0 mm 2 m/S 713 mmHg 78%
11:00 +11°C° 0 mm 3 m/S 713 mmHg 73%
12:00 +12°C° 0 mm 3 m/S 713 mmHg 69%
13:00 +12°C° 0 mm 3 m/S 712 mmHg 66%
14:00 +13°C° 0 mm 3 m/S 712 mmHg 64%
15:00 +13°C° 0 mm 4 m/S 712 mmHg 62%
16:00 +12°C° 0 mm 3 m/S 712 mmHg 68%
17:00 +11°C° 0 mm 3 m/S 712 mmHg 75%
18:00 +10°C° 0 mm 2 m/S 711 mmHg 82%
19:00 +9°C° 0 mm 2 m/S 712 mmHg 86%
20:00 +9°C° 0 mm 1 m/S 712 mmHg 90%
21:00 +8°C° 0 mm 1 m/S 712 mmHg 94%
22:00 +8°C° 0 mm 1 m/S 712 mmHg 94%
23:00 +8°C° 0 mm 1 m/S 712 mmHg 94%

Morgen, 26 Februar, Freitag

Zeit Temperatur Niederschläge Wind Luftdruck Luftfeuchtigkeit
00:00 +8°C° 0 mm 1 m/S 712 mmHg 95%
01:00 +7°C° 0 mm 1 m/S 712 mmHg 94%
02:00 +7°C° 0 mm 1 m/S 712 mmHg 94%
03:00 +7°C° 0 mm 1 m/S 711 mmHg 94%
04:00 +7°C° 0 mm 1 m/S 711 mmHg 94%
05:00 +7°C° 0 mm 1 m/S 711 mmHg 93%
06:00 +5°C° 0 mm 2 m/S 711 mmHg 93%
07:00 +7°C° 0 mm 2 m/S 712 mmHg 86%
08:00 +8°C° 0 mm 2 m/S 712 mmHg 80%
09:00 +9°C° 0 mm 2 m/S 713 mmHg 74%
10:00 +12°C° 0 mm 2 m/S 713 mmHg 66%
11:00 +13°C° 0 mm 2 m/S 713 mmHg 58%
12:00 +14°C° 0 mm 2 m/S 713 mmHg 50%
13:00 +15°C° 0 mm 2 m/S 713 mmHg 48%
14:00 +14°C° 0 mm 3 m/S 713 mmHg 47%
15:00 +16°C° 0 mm 3 m/S 712 mmHg 45%
16:00 +14°C° 0 mm 2 m/S 712 mmHg 54%
17:00 +13°C° 0 mm 2 m/S 712 mmHg 63%
18:00 +10°C° 0 mm 2 m/S 711 mmHg 73%
19:00 +9°C° 0 mm 2 m/S 711 mmHg 77%
20:00 +8°C° 0 mm 2 m/S 711 mmHg 81%
21:00 +9°C° 0 mm 1 m/S 712 mmHg 85%
22:00 +8°C° 0 mm 1 m/S 711 mmHg 86%
23:00 +8°C° 0 mm 1 m/S 711 mmHg 86%

übermorgen, 27 Februar, Samstag

Zeit Temperatur Niederschläge Wind Luftdruck Luftfeuchtigkeit
00:00 +7°C° 0 mm 1 m/S 711 mmHg 87%
01:00 +7°C° 0 mm 1 m/S 711 mmHg 86%
02:00 +7°C° 0 mm 1 m/S 711 mmHg 85%
03:00 +6°C° 0 mm 1 m/S 710 mmHg 85%
04:00 +6°C° 0 mm 1 m/S 710 mmHg 84%
05:00 +5°C° 0 mm 2 m/S 710 mmHg 84%
06:00 +4°C° 0 mm 2 m/S 710 mmHg 84%
07:00 +6°C° 0 mm 2 m/S 710 mmHg 78%
08:00 +8°C° 0 mm 3 m/S 711 mmHg 71%
09:00 +9°C° 0 mm 3 m/S 711 mmHg 65%
10:00 +11°C° 0 mm 3 m/S 711 mmHg 57%
11:00 +12°C° 0 mm 3 m/S 711 mmHg 50%
12:00 +13°C° 0 mm 3 m/S 711 mmHg 42%
13:00 +13°C° 0 mm 3 m/S 711 mmHg 41%
14:00 +14°C° 0 mm 4 m/S 711 mmHg 41%
15:00 +14°C° 0 mm 4 m/S 710 mmHg 41%
16:00 +12°C° 0 mm 4 m/S 710 mmHg 50%
17:00 +11°C° 0 mm 4 m/S 710 mmHg 60%
18:00 +10°C° 0 mm 3 m/S 709 mmHg 69%
19:00 +9°C° 0 mm 3 m/S 710 mmHg 75%
20:00 +8°C° 0 mm 3 m/S 710 mmHg 81%
21:00 +8°C° 0 mm 2 m/S 710 mmHg 87%
22:00 +8°C° 0 mm 2 m/S 710 mmHg 88%
23:00 +7°C° 0 mm 2 m/S 710 mmHg 88%

28 Februar, Sonntag

Zeit Temperatur Niederschläge Wind Luftdruck Luftfeuchtigkeit
00:00 +7°C° 0 mm 2 m/S 710 mmHg 89%
01:00 +7°C° 0 mm 2 m/S 709 mmHg 89%
02:00 +7°C° 0 mm 2 m/S 709 mmHg 89%
03:00 +6°C° 0 mm 2 m/S 709 mmHg 90%
04:00 +6°C° 0 mm 2 m/S 709 mmHg 90%
05:00 +6°C° 0 mm 2 m/S 709 mmHg 90%
06:00 +6°C° 0 mm 2 m/S 709 mmHg 90%
07:00 +7°C° 0 mm 2 m/S 709 mmHg 85%
08:00 +7°C° 0 mm 2 m/S 709 mmHg 80%
09:00 +8°C° 0 mm 3 m/S 710 mmHg 75%
10:00 +9°C° 0 mm 3 m/S 710 mmHg 68%
11:00 +10°C° 0 mm 4 m/S 710 mmHg 62%
12:00 +11°C° 0 mm 4 m/S 710 mmHg 56%
13:00 +12°C° 0 mm 5 m/S 709 mmHg 55%
14:00 +12°C° 0 mm 5 m/S 709 mmHg 54%
15:00 +12°C° 0 mm 5 m/S 708 mmHg 53%
16:00 +10°C° 0 mm 5 m/S 708 mmHg 59%
17:00 +10°C° 0 mm 4 m/S 708 mmHg 66%
18:00 +8°C° 0 mm 4 m/S 708 mmHg 73%
19:00 +8°C° 0 mm 3 m/S 708 mmHg 77%
20:00 +8°C° 0 mm 3 m/S 708 mmHg 81%
21:00 +7°C° 0 mm 3 m/S 708 mmHg 85%
22:00 +7°C° 0 mm 3 m/S 708 mmHg 85%
23:00 +7°C° 0 mm 3 m/S 708 mmHg 86%

1 März, Montag

Zeit Temperatur Niederschläge Wind Luftdruck Luftfeuchtigkeit
00:00 +7°C° 0 mm 3 m/S 708 mmHg 87%
01:00 +6°C° 0.1 mm 4 m/S 707 mmHg 88%
02:00 +6°C° 0.1 mm 4 m/S 707 mmHg 89%
03:00 +5°C° 0.1 mm 4 m/S 707 mmHg 90%
04:00 +5°C° 0.1 mm 4 m/S 707 mmHg 90%
05:00 +5°C° 0.1 mm 4 m/S 707 mmHg 90%
06:00 +5°C° 0.1 mm 4 m/S 707 mmHg 91%
07:00 +6°C° 0.1 mm 4 m/S 707 mmHg 87%
08:00 +7°C° 0.1 mm 4 m/S 707 mmHg 83%
09:00 +8°C° 0.1 mm 5 m/S 708 mmHg 79%
10:00 +9°C° 0 mm 5 m/S 708 mmHg 75%
11:00 +9°C° 0 mm 5 m/S 708 mmHg 71%
12:00 +10°C° 0 mm 5 m/S 708 mmHg 68%
13:00 +10°C° 0 mm 5 m/S 708 mmHg 66%
14:00 +12°C° 0 mm 5 m/S 707 mmHg 65%
15:00 +12°C° 0 mm 5 m/S 707 mmHg 64%
16:00 +10°C° 0 mm 5 m/S 707 mmHg 69%
17:00 +9°C° 0 mm 5 m/S 707 mmHg 74%
18:00 +8°C° 0 mm 4 m/S 707 mmHg 79%
19:00 +8°C° 0.1 mm 4 m/S 708 mmHg 81%
20:00 +8°C° 0.1 mm 4 m/S 708 mmHg 83%
21:00 +8°C° 0.1 mm 4 m/S 708 mmHg 84%
22:00 +7°C° 0 mm 4 m/S 708 mmHg 85%
23:00 +7°C° 0 mm 4 m/S 708 mmHg 86%

2 März, Dienstag

Zeit Temperatur Niederschläge Wind Luftdruck Luftfeuchtigkeit
00:00 +7°C° 0 mm 4 m/S 708 mmHg 87%
01:00 +7°C° 0.1 mm 4 m/S 708 mmHg 87%
02:00 +7°C° 0.1 mm 5 m/S 708 mmHg 87%
03:00 +7°C° 0.1 mm 5 m/S 708 mmHg 87%
04:00 +7°C° 0.1 mm 5 m/S 708 mmHg 87%
05:00 +7°C° 0.1 mm 4 m/S 709 mmHg 86%
06:00 +6°C° 0.1 mm 4 m/S 709 mmHg 86%
07:00 +7°C° 0 mm 5 m/S 709 mmHg 82%
08:00 +8°C° 0 mm 5 m/S 710 mmHg 78%
09:00 +9°C° 0 mm 6 m/S 710 mmHg 73%
10:00 +9°C° 0 mm 6 m/S 710 mmHg 70%
11:00 +10°C° 0 mm 6 m/S 711 mmHg 66%
12:00 +11°C° 0 mm 6 m/S 711 mmHg 62%
13:00 +11°C° 0 mm 6 m/S 711 mmHg 61%
14:00 +13°C° 0 mm 6 m/S 710 mmHg 61%
15:00 +13°C° 0 mm 6 m/S 710 mmHg 61%
16:00 +12°C° 0 mm 5 m/S 710 mmHg 65%
17:00 +10°C° 0 mm 5 m/S 710 mmHg 70%
18:00 +10°C° 0 mm 4 m/S 710 mmHg 75%
19:00 +9°C° 0 mm 3 m/S 711 mmHg 79%
20:00 +8°C° 0 mm 3 m/S 711 mmHg 84%
21:00 +7°C° 0 mm 3 m/S 712 mmHg 89%
22:00 +7°C° 0 mm 3 m/S 712 mmHg 87%
23:00 +8°C° 0 mm 3 m/S 712 mmHg 86%
Mehr zeigen

Wir brauchen deine Erlaubnis

Meteoprog und unser Service Anbieter werden persönliche Daten aufbewahren, so wie Cookies, Geräte Bezeichnung oder ähnliche Technologien von deinem Gerät und Prozess, so wie Persönliche Daten Inhalte und Werbungen, genauso wie social Media und den Verkehr zu analysieren.

  • Aufbewahrung und/oder Zugang zu deiner Geräte Informationen.

    Cookies, Geräte Bezeichnung oder andere Informationen, können aufbewahrt oder Zugang zu deinem Gerät erhalten, für den Grund, der oben angegeben wird.

  • Personalisierte Werbung und Inhalte, Messungen, Einblick in das Publikum und Produkt Entwicklung.

    Werbungen und Inhalte können personalisiert werden, basierend auf ein Profil. Mehr Daten können besser personalisierte Werbungen und Inhalte hinzufügen. Werbung und Inhalte können gezeigt und gemessen werden. Einblicke über das Publikum, welche die Werbung gesehen haben und den Inhalt, können abgeleitet werden. So wie Daten können genutzt werden, um es zu verbessern oder die Benutzer Erfahrung zu verbessern das System und die Software.

Wenn du “Ich stimme zu” klickst, erlaubst du uns, die Cookies zu benutzen die Geräte Bezeichnung, den Web oder ähnliche Technologien zu benutzen. Deine Settings, können in deinem Gerät bei deinem Browser geändert werden.

Für den bestimmten Zweck, berechtigten Interessen beruhen darauf, mehr als auf den Inhalt. Du kannst mehr darüber in unseren Privaten und Cookie Politik lesen.